Location: Düngen
(52.0952°N, 10.0219°E)
Time: 15:06:11
(UTC+00:00)

Cosmos 2315 Rocket - Pass Details

Date: 11 March 2026
Orbit: 966 x 1000 km, 82.9° (Epoch: 14 April)

Event Time Altitude Azimuth Distance (km) Brightness Sun altitude
Rises 19:15:49 0° 350° (N) 3,709 7.4 -18.7°
Reaches altitude 10° 19:18:21 10° 352° (N) 2,761 6.7 -19.1°
Maximum altitude 19:24:42 74° 78° (ENE) 1,037 3.9 -20.0°
Enters shadow 19:29:02 22° 161° (SSE) 2,038 5.3 -20.6°
